MOLNIYA 3-40 (21196 NORAD) Tracking and Keplerian Element Data

This shows tracking and keplerian element data for the satellite.

Feedback or suggestion? Click here.




ElementValue
Catalog21196
NameMOLNIYA 3-40
Epoch Orbit24909
Epoch Day29.92990263
Epoch Year2025
RAAN232.2413
Inclination64.7548
Eccentricity0.6442297
Argument of Perigee261.6137
Mean Anonmoly25.8409
Mean Motion2.03000952
Decay Rate-1.47E-06
L11 21196U 91022A 25029.92990263 -.00000147 00000+0 00000+0 0 9992
L22 21196 64.7548 232.2413 6442297 261.6137 25.8409 2.03000952249095



Live tracking and technical data element details for MOLNIYA 3-40 (NORAD 21196). MOLNIYA 3-40 can be tracked NOW for your location showing map with azimuth and elevation plus other details from your city location.







IsCatalogInMostPopularTable: catalog: 21196, numindb: 317
Update: records affected: 1



GetName: 21196 MOLNIYA 3-40

Hit Count: updated at: Sat, 17 May 2025 09:44:45 GMT